Voltar ao catálogo

STARLINK-4596

AtivoComunicaçõesVLEO
NORAD 53624·PAYLOAD·🇺🇸 United States

Lançado Aug 28, 2022 de Cape Canaveral Space Force Station

Loading…

Próximas Passagens (próximas 24 horas)

TLE

AtualizadoSource: CelesTrak SupGP

Época: Sep 15, 2026, 02:15 UTC

1 53624C 22104AN  26258.09423611 -.00011306  00000+0 -36355-3 0  2583
2 53624  53.1572  88.9953 0001371  80.8977 206.1946 15.31708968    15

Acompanhe STARLINK-4596 em tempo real com AllMySat

Download on the App Store